sat.trackr.live / text

‹ back to catalog

STARLINK-37295

NORAD 68552 · 2026-070L

PAYLOAD ACTIVE UNKNOWN

§ Identity

Operator
Country
US
Launch date
2026-04-02
Launch site
AFETR
Launch vehicle
Mass (kg)
RCS (m²)

Purposes: comms

External: N2YO · Heavens-Above · Gunter

§ Orbital elements

Epoch: 2026-09-20T03:46:10.709760Z

Period
93.85 min
Inclination
53.1596°
Eccentricity
0.0000537
Mean motion
15.34408669 rev/d
Perigee alt
462.3 km
Apogee alt
463.0 km
Semi-major
6,840.8 km
B*
6.8066e-4
RAAN
175.4031°
Arg perigee
106.3372°
Mean anomaly
253.7690°
Rev number
2,638

§ Raw data

STARLINK-372951 68552U 26070L   26263.15706840  .00022697  00000+0  68066-3 0  99952 68552  53.1596 175.4031 0000537 106.3372 253.7690 15.34408669 26382

JSON: /api/v1/satellites/68552 · /tle

For live sub-satellite position, see the globe view (requires WebGL).

§ Visibility from observer

Set your observer location to see the next 7 days of passes ≥ 10°. The values pass through the URL so the page stays shareable.

No JS? Fill the form by hand. The geolocation button needs JavaScript.